Regional Weather Roundup
Issued by NWS

Home | Current Version | Previous Version | Graphics & Text | Print | Product List | Glossary On
Versions: 1 2 3 4 5 6 7 8 9 10 11 12 13 14 15 16 17 18 19 20 21 22 23 24 25 26 27 28 29 30 31 32 33 34 35 36 37 38 39 40 41 42 43 44 45 46 47 48 49 50
000
ASUS43 KOAX 231710
RWRNE

WEATHER ROUNDUP FOR NEBRASKA
NATIONAL WEATHER SERVICE OMAHA NE
1200 PM CDT THU OCT 23 2014

NOTES: SATELLITE DATA IS BEING USED TO AUGMENT CLOUD COVER ABOVE
       12000 FEET.
       "FAIR" INDICATES FEW OR NO CLOUDS BELOW 12,000 FEET WITH NO
       SIGNIFICANT WEATHER AND/OR OBSTRUCTIONS TO VISIBILITY.

  * THESE STATIONS DO NOT REPORT WEATHER SUCH AS RAIN...SNOW OR FOG.

NEZ001>004-019>022-054>056-231800-
NEBRASKA PANHANDLE

CITY           SKY/WX    TMP DP  RH WIND       PRES   REMARKS
SCOTTSBLUFF    CLOUDY    56  39  53 CALM      30.08F
ALLIANCE       CLOUDY    63  32  31 W17       30.06F
CHADRON        CLOUDY    61  36  39 SW10      30.01F
KIMBALL        PTSUNNY   65  35  33 SW10      30.12S
SIDNEY         MOSUNNY   69  37  30 W7        30.12S
$$

NEZ057>060-069>072-079>082-231800-
SOUTHWEST NEBRASKA

CITY           SKY/WX    TMP DP  RH WIND       PRES   REMARKS
NORTH PLATTE   SUNNY     60  45  57 CALM      30.10F
IMPERIAL       SUNNY     69  46  43 S13       30.11F
LEXINGTON      MOSUNNY   57  57  98 CALM      30.11S
MCCOOK         MOSUNNY   59  50  72 CALM      30.13S
OGALLALA       MOSUNNY   60  43  52 W6        30.10F
$$

NEZ005>010-023>029-035>040-094-231800-
NORTH CENTRAL NEBRASKA

CITY           SKY/WX    TMP DP  RH WIND       PRES   REMARKS
VALENTINE      SUNNY     63  36  36 SW15      30.02F
AINSWORTH      SUNNY     65  37  36 SW10      30.03F
BROKEN BOW     CLOUDY    58  55  90 VRB5      30.09S
O`NEILL        SUNNY     66  51  57 SW16      30.04F
ORD            SUNNY     59  54  83 S7        30.08S
THEDFORD       SUNNY     69  43  38 SW9       30.07F
$$

NEZ041-046>049-061>064-073>077-083>087-231800-
SOUTH CENTRAL NEBRASKA

CITY           SKY/WX    TMP DP  RH WIND       PRES   REMARKS
GRAND ISLAND   CLOUDY    53  52  96 S8        30.11S
AURORA         MOSUNNY   57  57 100 SW5       30.10S
HASTINGS       FOG       54  52  93 S5        30.11S VSB 1/4
HEBRON         PTSUNNY   61  59  93 CALM      30.10S
HOLDREGE       FOG       55  54  97 CALM      30.11S VSB 3/4
KEARNEY *      CLOUDY    54  52  94 S5        30.12S VSB 1/4
YORK           SUNNY     61  55  82 S5        30.10F
$$

NEZ011>018-030>034-042>045-231800-
NORTHEAST NEBRASKA

CITY           SKY/WX    TMP DP  RH WIND       PRES   REMARKS
NORFOLK        SUNNY     65  51  60 S8        30.06F
ALBION         SUNNY     63  51  65 SW8       30.08S
BLAIR          SUNNY     62  55  78 E5        30.07F
COLUMBUS *     SUNNY     61  52  72 SW6       30.10F
FREMONT        SUNNY     63  56  80 CALM      30.07S
TEKAMAH        MOSUNNY   60  55  83 SE3       30.07F
WAYNE          SUNNY     65  51  61 SW7       30.07F
$$

NEZ050>053-065>068-078-088>093-231800-
SOUTHEAST NEBRASKA

CITY           SKY/WX    TMP DP  RH WIND       PRES   REMARKS
LINCOLN        CLOUDY    57  55  93 W7        30.10S FOG
OMAHA EPPLEY   MOSUNNY   62  56  80 N6        30.08S
BEATRICE       MOSUNNY   62  59  91 CALM      30.09F
FALLS CITY     MOSUNNY   68  61  78 W10       30.08S
NEBRASKA CITY  MOSUNNY   65  59  80 W6        30.08S
PLATTSMOUTH    MOSUNNY   64  56  75 CALM      30.08S
$$

NEZ044-045-051>053-067-231800-
OMAHA AREA

CITY           SKY/WX    TMP DP  RH WIND       PRES   REMARKS
OMAHA EPPLEY   MOSUNNY   62  56  80 N6        30.08S
BLAIR          SUNNY     62  55  78 E5        30.07F
FREMONT        SUNNY     63  56  80 CALM      30.07S
MILLARD        SUNNY     63  57  81 CALM      30.06F
OFFUTT AFB     SUNNY     65  62  91 VRB2      30.07S
PLATTSMOUTH    MOSUNNY   64  56  75 CALM      30.08S
WAHOO          FAIR      65  54  68 S5        30.08R
$$



USA.gov is the U.S. government's official web portal to all federal, state and local government web resources and services.